Вернуться в каталог

FENGYUN 1C DEB

АктивенSSO
NORAD 35104·DEBRIS·🇨🇳 China

Запущен May 10, 1999 с Taiyuan Satellite Launch Center

Loading…

Ближайшие Пролёты (ближайшие 24 часа)

TLE

СвежийSource: Space-Track

Эпоха: Sep 14, 2026, 19:21 UTC

1 35104U 99025DKG 26257.80639348  .00000465  00000-0  23418-3 0  9997
2 35104  98.5980 261.9088 0031802  64.5883 110.2326 14.20745405936865

Отслеживайте FENGYUN 1C DEB в реальном времени с AllMySat

Download on the App Store